Regional Weather Roundup
Issued by NWS New Orleans/Baton Rouge, LA

Home | Current Version | Previous Version | Text Only | Print | Product List | Glossary On
Versions: 1 2 3 4 5 6 7 8 9 10 11 12 13 14 15 16 17 18 19 20 21 22 23 24 25 26 27 28 29 30 31 32 33 34 35 36 37 38 39 40 41 42 43 44 45 46 47 48 49 50
198
ASUS44 KLIX 240510
RWRLIX
NEW ORLEANS REGIONAL WEATHER ROUNDUP
NATIONAL WEATHER SERVICE NEW ORLEANS LA
1200 AM CDT THU JUL 24 2014

NOTE: "FAIR" INDICATES FEW OR NO CLOUDS BELOW 12,000 FEET WITH NO
      SIGNIFICANT WEATHER AND/OR OBSTRUCTIONS TO VISIBILITY.
      SKY/WX - SKY CONDITION AND SIGNIFICANT WEATHER.
      TMP - AIR TEMPERATURE.     DP    - DEWPOINT TEMPERATURE.
      RH  - RELATIVE HUMIDITY.   PRES  - PRESSURE.
      HI  - HEAT INDEX.          WCI   - WIND CHILL INDEX.

*  THESE STATIONS ARE NOT NWS OR FAA STATIONS AND ARE NOT UNDER
   NWS QUALITY CONTROL.

LAZ038-040-048-061>063-065>067-069-240600-
SOUTHEAST LOUISIANA

CITY           SKY/WX    TMP DP  RH WIND       PRES   REMARKS
N.O. AUDUBON     N/A     79  73  82 MISG        N/A
N.O. INTL ARPT MOCLDY    77  73  87 SE5       29.99F
N.O. LAKEFRONT PTCLDY    78  73  84 SE5       30.00F
N.O. DOWNTOWN*   N/A     81  70  69 S3        30.00F
SLIDELL        CLEAR     75  71  87 CALM      29.99F
BATON ROUGE    PTCLDY    76  73  91 CALM      29.98F
BOOTHVILLE       N/A     79  73  82 S6        30.01F
BELLE CHASSE   PTCLDY    74  71  91 CALM      29.99F
BOGALUSA*        N/A     76  72  87 S3        30.01F
GALLIANO*      NOT AVBL
NEW ROADS*     MOCLDY    77  74  91 W6        30.00S
GONZALES*        N/A     75  75 100 CALM      29.99F
HAMMOND*       CLEAR     75  72  88 CALM      30.00F
HOUMA*         PTCLDY    74  71  91 CALM      30.00F
PORT FOURCHON* MOCLDY    81  73  78 CALM      30.02S

$$

MSZ070-080>082-240600-
SOUTHERN MISSISSIPPI

CITY           SKY/WX    TMP DP  RH WIND       PRES   REMARKS
MCCOMB         CLEAR     76  72  87 CALM      30.00F
GULFPORT       CLEAR     78  72  81 CALM      30.00F
BILOXI         CLEAR     76  72  86 CALM      30.00F
PASCAGOULA     CLEAR     72  71  97 CALM      30.01F FOG

$$

COASTAL OBSERVATIONS
LAKE AND NEARSHORE STATIONS

STATION/POSITION TIME  TEMP    WIND        PRES    WAVE
                       AIR SEA DIR/SP/G            HT/PER
                 (UTC) (F)     (DEG/KT/KT) (MB)    (FT/S)
WAVELAND YACHT   0400   79     190/  3/  5 1015.6
GRAND ISLE       0400   80 84  180/  2/  3 1016.6
SOUTHWEST PASS   0400   82 85  190/  4/  6 1016.8
NEW CANAL        0400   79 82  180/  1/  2 1016.5
SHELL BEACH      0400   80 80  100/  4/  6 1016.0

OFFSHORE STATIONS

STATION/POSITION TIME  TEMP    WIND        PRES    WAVE
                       AIR SEA DIR/SP/G            HT/PER
                 (UTC) (F)     (DEG/KT/KT) (MB)    (FT/S)
64 S DAUPHIN ISL 0443   82 84  210/ 10/ 10 1016.8

$$




USA.gov is the U.S. government's official web portal to all federal, state and local government web resources and services.